Regional Weather Roundup
Issued by NWS Green Bay, WI

Home | Current Version | Previous Version | Graphics & Text | Print | Product List | Glossary Off
Versions: 1 2 3 4 5 6 7 8 9 10 11 12 13 14 15 16 17 18 19 20 21 22 23 24 25 26 27 28 29 30 31 32 33 34 35 36 37 38 39 40 41 42 43 44 45 46 47 48 49 50

000
ASUS43 KGRB 211011
RWRGRB

NORTH-CENTRAL AND NORTHEAST WISCONSIN REGIONAL WEATHER ROUNDUP
NATIONAL WEATHER SERVICE GREEN BAY WI
500 AM CDT THU SEP 21 2017

WIZ005-009-010>012-018-019-211100-
NORTH CENTRAL WISCONSIN

CITY           SKY/WX    TMP DP  RH WIND       PRES   REMARKS
IRONWOOD       CLEAR     45  43  93 CALM      30.05R FOG
MANITOWISH WTR FOG       43  43 100 CALM      30.03R VSB 3/4
ARBOR VITAE    FOG       51  49  95 CALM      30.02S VSB 1/4
EAGLE RIVER    FOG       48  48 100 CALM      30.02S VSB 1/2
LAND O LAKES   FOG       47  47 100 CALM      30.04S VSB 1/4
RHINELANDER    CLEAR     54  54 100 CALM      30.03R
PHILLIPS       FOG       44  44 100 CALM      30.02R VSB 1
ANTIGO         CLEAR     58  58 100 N5        30.02R
TOMAHAWK       FOG       49  48  97 CALM      30.02R VSB<1/4
MERRILL          N/A     52  52 100 CALM      30.01R FOG
$$

WIZ013-073-211100-
NORTHEAST WISCONSIN

CITY           SKY/WX    TMP DP  RH WIND       PRES   REMARKS
IRON MOUNTAIN  CLEAR     59  56  89 NW6       29.99R
MARINETTE      CLOUDY    66  65  96 N5        29.98R
OCONTO         CLOUDY    67  66  98 CALM      29.98R
$$

WIZ017-030-035>037-045-211100-
CENTRAL WISCONSIN

CITY           SKY/WX    TMP DP  RH WIND       PRES   REMARKS
MEDFORD        CLEAR     53  52  97 NE3       30.00S
WAUSAU         CLEAR     60  58  92 N3        30.00R
MOSINEE        CLEAR    N/A N/A N/A N8        30.01R
MARSHFIELD     CLEAR     60  56  86 NE7       29.99R
WISC RAPIDS    CLEAR     62  61  96 N7        29.97F
STEVENS POINT  PTCLDY    60  60 100 N8        29.97F FOG
WAUPACA        FOG       68  68  98 N3        29.97S VSB 1/2
SHAWANO        CLOUDY    67  65  96 N3        29.97S
CLINTONVILLE   NOT AVBL
WAUTOMA        FOG       68  68 100 N5        29.95  VSB 1/2
$$

WIZ038-039-048-051-211100-
FOX VALLEY

CITY           SKY/WX    TMP DP  RH WIND       PRES   REMARKS
NWS GREEN BAY  CLOUDY    64  64 100 N5        29.96R FOG
APPLETON       CLOUDY    66  66 100 NW8       29.94S
OSHKOSH        MOCLDY    68  67  96 CALM      29.96R
FOND DU LAC    CLOUDY    69  65  86 N6        29.97R
$$

WIZ022-050-052-211100-
EAST CENTRAL WISCONSIN

CITY           SKY/WX    TMP DP  RH WIND       PRES   REMARKS
EPHRAIM        CLOUDY    65  65  98 N7        29.98R FOG
WASHINGTON ISL FAIR      65  64  97 NE7       29.97R
STURGEON BAY   CLOUDY    67  66  97 N3        29.99R
MANITOWOC      NOT AVBL
SHEBOYGAN      CLOUDY    67  67 100 E3        29.98R
$$

LMZ563-521-522-541>543-211100-
LAKESHORE

STATION/POSITION TIME  TEMP    WIND        PRES    VSBY  WAVE
                       AIR SEA DIR/SP/G                  HT/PER
                 (UTC) (F)     (DEG/KT/KT) (MB)    (MI)  (FT/S)
SHEBOYGAN LKSHOR 1000   68      80/ 16/ 16 1014.6R
KEWAUNEE LKSHORE 0948   64     150/  1/  2 1014.1R
NORTHPORT PIER   0940   66     340/  7/ 11 1014.6R
N MID LAKE BUOY  0950   66 65   30/  6/  8 1015.1R         3/ 6
S GREEN BAY BUOY 1000   66 66  230/  2/  2 1014.9
SISTER BAY LKSHO 1004   68     350/  8/  9   N/A
MENOMINEE LKSHOR 0948   67     350/  6/  7 1014.7R
$$




USA.gov is the U.S. government's official web portal to all federal, state and local government web resources and services.